Location: Eschertshofen
(49.3064°N, 11.5756°E)
Time: 04:46:09
(UTC+00:00)

SPOT 5 - Pass Details

Date: 18 September 2020
Orbit: 623 x 814 km, 98.3° (Epoch: 20 October)

Event Time Altitude Azimuth Distance (km) Brightness Sun altitude
Exits shadow 20:40:09 51° 6° (N) 988 3.6 -30.2°
Drops below altitude 10° 20:44:11 10° 349° (N) 2,393 6.2 -30.6°
Sets 20:46:35 0° 348° (NNW) 3,340 7.1 -30.9°
